RYR932 LIMJ-LICC

Flight info

Callsign RYR932
Flight time 1h 28m
Altitude 37000
Route UNITA DCT ELB DCT PODOX DCT LURON DCT BEKIV DCT ENEPA DCT LIBRO
Aircraft A346/H-SDE2E3FGHIJ3J4J5M1RWXY/LB1D1

Departure

Time 2026-04-26 18:46
Airport Genoa Cristoforo Colombo Airport (LIMJ)

Arrival

Time 2026-04-26 20:14
Airport Catania-Fontanarossa Airport (LICC)
Time Latitude Longitude Altitude Speed Heading
2026-04-26 18:20 44.41494 8.84910 28 ft 0 kts 105°
2026-04-26 18:30 44.41494 8.84906 28 ft 2 kts 105°
2026-04-26 18:31 44.41499 8.84881 28 ft 3 kts 104°
2026-04-26 18:31 44.41504 8.84854 27 ft 3 kts 103°
2026-04-26 18:31 44.41508 8.84832 26 ft 1 kts 104°
2026-04-26 18:31 44.41511 8.84816 27 ft 3 kts 117°
2026-04-26 18:32 44.41517 8.84804 26 ft 3 kts 149°
2026-04-26 18:32 44.41519 8.84801 26 ft 3 kts 187°
2026-04-26 18:32 44.41529 8.84807 27 ft 3 kts 215°
2026-04-26 18:32 44.41544 8.84824 28 ft 3 kts 224°
2026-04-26 18:33 44.41557 8.84844 27 ft 2 kts 230°
2026-04-26 18:33 44.41562 8.84852 26 ft 0 kts 231°
2026-04-26 18:35 44.41558 8.84845 26 ft 5 kts 231°
2026-04-26 18:35 44.41510 8.84762 27 ft 14 kts 231°
2026-04-26 18:35 44.41461 8.84679 28 ft 6 kts 233°
2026-04-26 18:35 44.41456 8.84666 28 ft 1 kts 238°
2026-04-26 18:36 44.41455 8.84664 28 ft 1 kts 237°
2026-04-26 18:36 44.41442 8.84639 28 ft 4 kts 227°
2026-04-26 18:37 44.41404 8.84688 28 ft 12 kts 99°
2026-04-26 18:37 44.41378 8.84813 28 ft 15 kts 106°
2026-04-26 18:37 44.41348 8.84963 28 ft 8 kts 104°
2026-04-26 18:37 44.41338 8.85038 28 ft 9 kts 99°
2026-04-26 18:38 44.41321 8.85134 28 ft 6 kts 105°
2026-04-26 18:38 44.41320 8.85138 28 ft 1 kts 105°
2026-04-26 18:38 44.41313 8.85175 28 ft 6 kts 106°
2026-04-26 18:38 44.41297 8.85236 28 ft 7 kts 122°
2026-04-26 18:39 44.41276 8.85259 28 ft 1 kts 147°
2026-04-26 18:39 44.41262 8.85269 28 ft 4 kts 158°
2026-04-26 18:39 44.41228 8.85274 28 ft 3 kts 184°
2026-04-26 18:39 44.41196 8.85267 28 ft 6 kts 190°
2026-04-26 18:40 44.41168 8.85258 28 ft 0 kts 195°
2026-04-26 18:40 44.41163 8.85256 28 ft 0 kts 195°
2026-04-26 18:40 44.41162 8.85256 28 ft 1 kts 195°
2026-04-26 18:40 44.41159 8.85255 28 ft 0 kts 195°
2026-04-26 18:41 44.41149 8.85251 28 ft 3 kts 195°
2026-04-26 18:41 44.41118 8.85239 28 ft 3 kts 195°
2026-04-26 18:41 44.41106 8.85235 28 ft 0 kts 195°
2026-04-26 18:42 44.41100 8.85233 28 ft 9 kts 196°
2026-04-26 18:43 44.41034 8.85171 29 ft 13 kts 218°
2026-04-26 18:43 44.41017 8.85100 28 ft 7 kts 279°
2026-04-26 18:43 44.41027 8.85049 26 ft 0 kts 285°
2026-04-26 18:43 44.41023 8.85068 30 ft 7 kts 285°
2026-04-26 18:44 44.41021 8.85078 29 ft 0 kts 285°
2026-04-26 18:45 44.41040 8.84982 27 ft 39 kts 285°
2026-04-26 18:45 44.41177 8.84275 30 ft 109 kts 285°
2026-04-26 18:45 44.41433 8.82967 31 ft 166 kts 285°
2026-04-26 18:46 44.41763 8.81304 514 ft 178 kts 285°
2026-04-26 18:46 44.42092 8.79633 1280 ft 179 kts 277°
2026-04-26 18:46 44.41865 8.77978 2048 ft 175 kts 231°
2026-04-26 18:46 44.40867 8.77051 2581 ft 180 kts 187°
2026-04-26 18:47 44.39627 8.77393 3058 ft 190 kts 149°
2026-04-26 18:47 44.38638 8.78607 3795 ft 188 kts 134°
2026-04-26 18:47 44.37743 8.79945 4517 ft 191 kts 132°
2026-04-26 18:47 44.36787 8.81325 5089 ft 204 kts 138°
2026-04-26 18:48 44.35523 8.82357 5578 ft 223 kts 167°
2026-04-26 18:48 44.33930 8.82533 6175 ft 238 kts 173°
2026-04-26 18:48 44.32295 8.83161 6770 ft 251 kts 156°
2026-04-26 18:48 44.30642 8.84178 7351 ft 268 kts 155°
2026-04-26 18:49 44.28867 8.85255 7951 ft 288 kts 156°
2026-04-26 18:49 44.26953 8.86335 8523 ft 307 kts 158°
2026-04-26 18:49 44.24897 8.87431 9136 ft 326 kts 159°
2026-04-26 18:49 44.22737 8.88541 9729 ft 344 kts 159°
2026-04-26 18:50 44.20402 8.89715 10436 ft 357 kts 160°
2026-04-26 18:50 44.18042 8.90890 11364 ft 362 kts 160°
2026-04-26 18:50 44.15641 8.92078 12180 ft 373 kts 160°
2026-04-26 18:50 44.13169 8.93298 12666 ft 391 kts 160°
2026-04-26 18:51 44.10563 8.94582 13317 ft 402 kts 160°
2026-04-26 18:51 44.07911 8.95887 14195 ft 406 kts 160°
2026-04-26 18:51 44.05231 8.97205 15009 ft 410 kts 160°
2026-04-26 18:51 44.02524 8.98537 15799 ft 415 kts 161°
2026-04-26 18:52 43.99793 8.99879 16608 ft 420 kts 161°
2026-04-26 18:52 43.97047 9.01294 17395 ft 425 kts 158°
2026-04-26 18:52 43.94401 9.03149 18259 ft 427 kts 150°
2026-04-26 18:52 43.91933 9.05454 19138 ft 428 kts 143°
2026-04-26 18:53 43.89605 9.08072 19878 ft 432 kts 141°
2026-04-26 18:53 43.87292 9.10761 20545 ft 437 kts 141°
2026-04-26 18:53 43.84950 9.13493 21225 ft 441 kts 141°
2026-04-26 18:53 43.82585 9.16243 21905 ft 446 kts 141°
2026-04-26 18:54 43.80197 9.19012 22560 ft 450 kts 141°
2026-04-26 18:54 43.77779 9.21807 23207 ft 454 kts 142°
2026-04-26 18:54 43.75337 9.24621 23844 ft 458 kts 142°
2026-04-26 18:54 43.72872 9.27455 24375 ft 462 kts 142°
2026-04-26 18:55 43.70390 9.30304 24905 ft 466 kts 142°
2026-04-26 18:55 43.67884 9.33177 25432 ft 469 kts 142°
2026-04-26 18:55 43.65359 9.36070 25938 ft 473 kts 142°
2026-04-26 18:55 43.62847 9.38944 26451 ft 477 kts 142°
2026-04-26 18:56 43.60243 9.41921 26969 ft 480 kts 142°
2026-04-26 18:56 43.57695 9.44829 27477 ft 484 kts 142°
2026-04-26 18:56 43.55089 9.47800 27975 ft 488 kts 141°
2026-04-26 18:56 43.52460 9.50792 28452 ft 492 kts 141°
2026-04-26 18:57 43.49809 9.53810 29082 ft 493 kts 141°
2026-04-26 18:57 43.48024 9.55840 29602 ft 492 kts 141°
2026-04-26 18:57 43.44539 9.59799 30617 ft 489 kts 141°
2026-04-26 18:57 43.41914 9.62777 31298 ft 487 kts 141°
2026-04-26 18:58 43.39297 9.65740 31991 ft 485 kts 142°
2026-04-26 18:58 43.36695 9.68685 32667 ft 484 kts 142°
2026-04-26 18:58 43.34102 9.71615 33334 ft 482 kts 142°
2026-04-26 18:58 43.31508 9.74542 33951 ft 481 kts 142°
2026-04-26 18:59 43.28927 9.77451 34497 ft 480 kts 142°
2026-04-26 18:59 43.26345 9.80358 34998 ft 479 kts 142°
2026-04-26 18:59 43.23771 9.83252 35511 ft 478 kts 142°
2026-04-26 18:59 43.21187 9.86150 35975 ft 478 kts 142°
2026-04-26 19:00 43.18604 9.89049 36337 ft 480 kts 142°
2026-04-26 19:00 43.16015 9.91952 36674 ft 482 kts 142°
2026-04-26 19:00 43.13410 9.94869 36972 ft 484 kts 142°
2026-04-26 19:00 43.10826 9.97757 37147 ft 486 kts 142°
2026-04-26 19:01 43.05577 10.03614 37145 ft 487 kts 142°
2026-04-26 19:01 43.00324 10.09463 37147 ft 487 kts 142°
2026-04-26 19:02 42.95067 10.15304 37140 ft 487 kts 143°
2026-04-26 19:02 42.90686 10.20159 37143 ft 487 kts 143°
2026-04-26 19:03 42.84561 10.26928 37145 ft 487 kts 143°
2026-04-26 19:03 42.79242 10.32674 37141 ft 487 kts 146°
2026-04-26 19:04 42.73548 10.37632 37129 ft 485 kts 153°
2026-04-26 19:04 42.67471 10.41551 37143 ft 483 kts 161°
2026-04-26 19:05 42.57904 10.45699 37141 ft 481 kts 166°
2026-04-26 19:06 42.51480 10.48252 37135 ft 481 kts 166°
2026-04-26 19:06 42.45071 10.50811 37143 ft 481 kts 166°
2026-04-26 19:07 42.38695 10.53357 37151 ft 481 kts 166°
2026-04-26 19:07 42.32285 10.55999 37145 ft 482 kts 163°
2026-04-26 19:08 42.26056 10.59397 37152 ft 484 kts 157°
2026-04-26 19:08 42.20115 10.63697 37147 ft 485 kts 152°
2026-04-26 19:09 42.14282 10.68300 37148 ft 485 kts 152°
2026-04-26 19:09 42.08449 10.72883 37141 ft 485 kts 152°
2026-04-26 19:10 42.02613 10.77452 37146 ft 485 kts 152°
2026-04-26 19:10 41.96816 10.81978 37147 ft 485 kts 152°
2026-04-26 19:11 41.90977 10.86526 37149 ft 485 kts 152°
2026-04-26 19:11 41.85140 10.91062 37139 ft 484 kts 152°
2026-04-26 19:12 41.79298 10.95593 37148 ft 484 kts 152°
2026-04-26 19:12 41.73463 11.00109 37152 ft 484 kts 152°
2026-04-26 19:13 41.67616 11.04625 37151 ft 484 kts 152°
2026-04-26 19:13 41.61777 11.09123 37144 ft 484 kts 152°
2026-04-26 19:14 41.55978 11.13584 37141 ft 484 kts 152°
2026-04-26 19:14 41.50142 11.18063 37160 ft 484 kts 152°
2026-04-26 19:15 41.44301 11.22536 37161 ft 484 kts 152°
2026-04-26 19:15 41.38467 11.26993 37155 ft 483 kts 152°
2026-04-26 19:16 41.32630 11.31445 37150 ft 483 kts 152°
2026-04-26 19:16 41.27773 11.35143 37152 ft 483 kts 152°
2026-04-26 19:17 41.21937 11.39577 37154 ft 483 kts 152°
2026-04-26 19:17 41.16098 11.44002 37151 ft 482 kts 152°
2026-04-26 19:18 41.10268 11.48414 37150 ft 482 kts 152°
2026-04-26 19:18 41.04432 11.52821 37153 ft 482 kts 152°
2026-04-26 19:19 40.98638 11.57186 37155 ft 482 kts 152°
2026-04-26 19:19 40.92790 11.61582 37152 ft 482 kts 152°
2026-04-26 19:20 40.86942 11.65972 37153 ft 482 kts 152°
2026-04-26 19:20 40.81104 11.70346 37153 ft 482 kts 152°
2026-04-26 19:21 40.75262 11.74713 37158 ft 482 kts 152°
2026-04-26 19:21 40.69418 11.79072 37154 ft 482 kts 152°
2026-04-26 19:22 40.63572 11.83413 37153 ft 482 kts 152°
2026-04-26 19:22 40.57758 11.87714 37156 ft 483 kts 152°
2026-04-26 19:23 40.51818 11.92118 37158 ft 493 kts 152°
2026-04-26 19:23 40.45837 11.96560 37155 ft 493 kts 152°
2026-04-26 19:24 40.39863 12.00979 37156 ft 493 kts 152°
2026-04-26 19:24 40.30876 12.07599 37155 ft 493 kts 152°
2026-04-26 19:25 40.25899 12.11255 37152 ft 493 kts 152°
2026-04-26 19:25 40.18898 12.16388 37158 ft 493 kts 152°
2026-04-26 19:26 40.12905 12.20771 37158 ft 493 kts 152°
2026-04-26 19:26 40.06950 12.25118 37159 ft 493 kts 152°
2026-04-26 19:27 40.00956 12.29485 37159 ft 493 kts 152°
2026-04-26 19:27 39.94973 12.33835 37159 ft 493 kts 152°
2026-04-26 19:28 39.88974 12.38187 37158 ft 493 kts 152°
2026-04-26 19:28 39.82974 12.42533 37157 ft 493 kts 152°
2026-04-26 19:29 39.76969 12.46875 37156 ft 493 kts 153°
2026-04-26 19:29 39.70965 12.51206 37158 ft 493 kts 153°
2026-04-26 19:30 39.65001 12.55498 37160 ft 493 kts 153°
2026-04-26 19:30 39.59961 12.59118 37160 ft 493 kts 153°
2026-04-26 19:31 39.52988 12.64121 37154 ft 493 kts 153°
2026-04-26 19:31 39.46975 12.68422 37158 ft 493 kts 153°
2026-04-26 19:32 39.40953 12.72719 37159 ft 493 kts 153°
2026-04-26 19:32 39.34934 12.77007 37159 ft 494 kts 153°
2026-04-26 19:33 39.28911 12.81293 37155 ft 494 kts 153°
2026-04-26 19:33 39.22912 12.85549 37158 ft 495 kts 153°
2026-04-26 19:34 39.16877 12.89821 37161 ft 495 kts 153°
2026-04-26 19:34 39.10835 12.94090 37161 ft 495 kts 153°
2026-04-26 19:35 39.04799 12.98350 37155 ft 495 kts 154°
2026-04-26 19:35 38.98753 13.02603 37160 ft 496 kts 154°
2026-04-26 19:36 38.93716 13.06137 37162 ft 496 kts 154°
2026-04-26 19:36 38.86540 13.11130 37157 ft 496 kts 155°
2026-04-26 19:37 38.80282 13.14842 37154 ft 496 kts 159°
2026-04-26 19:37 38.73963 13.18442 37158 ft 497 kts 159°
2026-04-26 19:38 38.67685 13.22009 37158 ft 497 kts 159°
2026-04-26 19:38 38.61365 13.25595 37158 ft 497 kts 159°
2026-04-26 19:39 38.55043 13.29176 37155 ft 497 kts 159°
2026-04-26 19:39 38.48704 13.32757 37155 ft 497 kts 159°
2026-04-26 19:40 38.42368 13.36331 37156 ft 498 kts 159°
2026-04-26 19:40 38.36035 13.39896 37156 ft 498 kts 159°
2026-04-26 19:41 38.29682 13.43471 37152 ft 499 kts 159°
2026-04-26 19:41 38.24389 13.46437 37154 ft 500 kts 159°
2026-04-26 19:42 38.16989 13.50575 37162 ft 500 kts 159°
2026-04-26 19:42 38.10627 13.54127 37158 ft 498 kts 159°
2026-04-26 19:43 38.07468 13.55896 36878 ft 493 kts 160°
2026-04-26 19:43 38.04318 13.57651 36044 ft 497 kts 160°
2026-04-26 19:43 38.01134 13.59416 35107 ft 503 kts 160°
2026-04-26 19:43 37.97922 13.61196 34249 ft 507 kts 160°
2026-04-26 19:44 37.94683 13.62993 33353 ft 509 kts 160°
2026-04-26 19:44 37.91480 13.64940 32388 ft 515 kts 152°
2026-04-26 19:44 37.88632 13.67756 31349 ft 525 kts 137°
2026-04-26 19:44 37.86385 13.71429 30427 ft 531 kts 122°
2026-04-26 19:45 37.84824 13.75680 29387 ft 533 kts 112°
2026-04-26 19:45 37.83493 13.80054 28512 ft 531 kts 111°
2026-04-26 19:45 37.82197 13.84398 28004 ft 523 kts 111°
2026-04-26 19:45 37.80895 13.88689 27326 ft 520 kts 111°
2026-04-26 19:46 37.79581 13.92930 26478 ft 513 kts 112°
2026-04-26 19:46 37.78272 13.97088 25334 ft 503 kts 112°
2026-04-26 19:46 37.76981 14.01154 24726 ft 497 kts 112°
2026-04-26 19:46 37.75678 14.05196 24317 ft 492 kts 113°
2026-04-26 19:47 37.74391 14.09156 23887 ft 483 kts 113°
2026-04-26 19:47 37.73543 14.11755 23642 ft 482 kts 113°
2026-04-26 19:47 37.71839 14.16974 22908 ft 476 kts 113°
2026-04-26 19:47 37.70579 14.20829 22430 ft 471 kts 113°
2026-04-26 19:48 37.69336 14.24630 21964 ft 465 kts 113°
2026-04-26 19:48 37.68104 14.28389 21523 ft 460 kts 113°
2026-04-26 19:48 37.66904 14.32049 21087 ft 454 kts 113°
2026-04-26 19:48 37.65700 14.35716 20633 ft 450 kts 113°
2026-04-26 19:49 37.64507 14.39347 20191 ft 445 kts 113°
2026-04-26 19:49 37.63260 14.42902 19726 ft 440 kts 120°
2026-04-26 19:49 37.61352 14.45850 19266 ft 431 kts 141°
2026-04-26 19:49 37.58821 14.47779 18833 ft 421 kts 161°
2026-04-26 19:50 37.56039 14.48834 18424 ft 415 kts 167°
2026-04-26 19:50 37.53257 14.49765 17907 ft 411 kts 167°
2026-04-26 19:50 37.50508 14.50692 17446 ft 407 kts 167°
2026-04-26 19:50 37.47784 14.51631 17022 ft 404 kts 166°
2026-04-26 19:51 37.45085 14.52575 16581 ft 400 kts 166°
2026-04-26 19:51 37.42422 14.53515 16156 ft 396 kts 166°
2026-04-26 19:51 37.39773 14.54453 15732 ft 393 kts 166°
2026-04-26 19:51 37.37153 14.55382 15312 ft 389 kts 166°
2026-04-26 19:52 37.34571 14.56347 14883 ft 387 kts 161°
2026-04-26 19:52 37.32330 14.58154 14590 ft 380 kts 135°
2026-04-26 19:52 37.30888 14.60805 14504 ft 368 kts 114°
2026-04-26 19:52 37.30307 14.63873 14394 ft 355 kts 92°
2026-04-26 19:53 37.30546 14.66908 14287 ft 343 kts 79°
2026-04-26 19:53 37.30998 14.69800 14178 ft 332 kts 78°
2026-04-26 19:53 37.31446 14.72602 14075 ft 321 kts 78°
2026-04-26 19:53 37.31864 14.75308 13986 ft 309 kts 79°
2026-04-26 19:54 37.32251 14.77918 13889 ft 298 kts 79°
2026-04-26 19:54 37.32617 14.80441 13800 ft 287 kts 79°
2026-04-26 19:54 37.32967 14.82875 13721 ft 278 kts 79°
2026-04-26 19:54 37.33307 14.85249 13638 ft 274 kts 79°
2026-04-26 19:55 37.33647 14.87614 13330 ft 275 kts 79°
2026-04-26 19:55 37.33986 14.89975 13033 ft 273 kts 79°
2026-04-26 19:55 37.34321 14.92320 12753 ft 271 kts 79°
2026-04-26 19:55 37.34657 14.94652 12488 ft 270 kts 80°
2026-04-26 19:56 37.34987 14.96969 12216 ft 268 kts 80°
2026-04-26 19:56 37.35311 14.99267 11948 ft 266 kts 80°
2026-04-26 19:56 37.35628 15.01516 11686 ft 264 kts 80°
2026-04-26 19:56 37.35949 15.03790 11424 ft 262 kts 80°
2026-04-26 19:57 37.36267 15.06043 11152 ft 261 kts 80°
2026-04-26 19:57 37.36583 15.08285 10880 ft 259 kts 80°
2026-04-26 19:57 37.36897 15.10514 10611 ft 258 kts 80°
2026-04-26 19:57 37.37210 15.12735 10347 ft 258 kts 80°
2026-04-26 19:58 37.37524 15.14959 10082 ft 257 kts 80°
2026-04-26 19:58 37.37836 15.17177 9790 ft 256 kts 80°
2026-04-26 19:58 37.38145 15.19380 9509 ft 255 kts 80°
2026-04-26 19:58 37.38451 15.21568 9233 ft 253 kts 81°
2026-04-26 19:59 37.38754 15.23743 8975 ft 251 kts 81°
2026-04-26 19:59 37.39054 15.25897 8702 ft 249 kts 81°
2026-04-26 19:59 37.39351 15.28027 8484 ft 243 kts 80°
2026-04-26 19:59 37.39638 15.30097 8468 ft 239 kts 80°
2026-04-26 20:00 37.39926 15.32159 8343 ft 239 kts 80°
2026-04-26 20:00 37.40212 15.34222 8059 ft 238 kts 80°
2026-04-26 20:00 37.40495 15.36265 7791 ft 236 kts 80°
2026-04-26 20:00 37.40776 15.38294 7525 ft 234 kts 79°
2026-04-26 20:01 37.41055 15.40311 7265 ft 232 kts 79°
2026-04-26 20:01 37.41327 15.42279 7047 ft 228 kts 79°
2026-04-26 20:01 37.41600 15.44253 7065 ft 230 kts 79°
2026-04-26 20:01 37.41876 15.46243 7083 ft 231 kts 79°
2026-04-26 20:02 37.42150 15.48234 7099 ft 231 kts 79°
2026-04-26 20:02 37.42422 15.50225 7112 ft 231 kts 80°
2026-04-26 20:02 37.42989 15.52090 7085 ft 231 kts 49°
2026-04-26 20:02 37.43370 15.52574 7089 ft 231 kts 37°
2026-04-26 20:03 37.45924 15.53198 6943 ft 235 kts 352°
2026-04-26 20:03 37.47546 15.52821 6601 ft 238 kts 350°
2026-04-26 20:03 37.49175 15.52436 6299 ft 238 kts 350°
2026-04-26 20:03 37.50789 15.52015 5995 ft 237 kts 340°
2026-04-26 20:04 37.52077 15.50762 5677 ft 239 kts 301°
2026-04-26 20:04 37.52453 15.48757 5375 ft 239 kts 264°
2026-04-26 20:04 37.52164 15.46731 5158 ft 237 kts 259°
2026-04-26 20:04 37.51838 15.44702 4898 ft 235 kts 259°
2026-04-26 20:05 37.51526 15.42678 4635 ft 234 kts 259°
2026-04-26 20:05 37.51232 15.40668 4382 ft 232 kts 260°
2026-04-26 20:05 37.50860 15.38692 4134 ft 231 kts 254°
2026-04-26 20:05 37.50345 15.36784 3883 ft 229 kts 252°
2026-04-26 20:06 37.49811 15.34899 3643 ft 227 kts 251°
2026-04-26 20:06 37.49279 15.33028 3407 ft 226 kts 251°
2026-04-26 20:06 37.48794 15.31167 3194 ft 220 kts 257°
2026-04-26 20:06 37.48537 15.29303 2887 ft 212 kts 264°
2026-04-26 20:07 37.48384 15.27492 2781 ft 201 kts 264°
2026-04-26 20:07 37.48251 15.25792 2681 ft 190 kts 264°
2026-04-26 20:07 37.48166 15.24715 2595 ft 184 kts 264°
2026-04-26 20:07 37.47996 15.22614 2335 ft 178 kts 264°
2026-04-26 20:08 37.47913 15.21585 2164 ft 177 kts 264°
2026-04-26 20:08 37.47787 15.20050 1995 ft 175 kts 264°
2026-04-26 20:08 37.47661 15.18520 2004 ft 176 kts 264°
2026-04-26 20:08 37.47534 15.17007 1947 ft 168 kts 264°
2026-04-26 20:09 37.47414 15.15547 1655 ft 167 kts 264°
2026-04-26 20:09 37.47290 15.14068 1264 ft 172 kts 264°
2026-04-26 20:09 37.47159 15.12563 931 ft 171 kts 264°
2026-04-26 20:09 37.47033 15.11148 1080 ft 159 kts 266°
2026-04-26 20:10 37.47239 15.09819 1413 ft 158 kts 309°
2026-04-26 20:10 37.48223 15.09361 1736 ft 180 kts 16°
2026-04-26 20:10 37.49237 15.10619 1848 ft 245 kts 68°
2026-04-26 20:10 37.49787 15.12885 2070 ft 277 kts 71°
2026-04-26 20:11 37.50449 15.15076 2025 ft 260 kts 66°
2026-04-26 20:11 37.51176 15.17103 1887 ft 247 kts 69°
2026-04-26 20:11 37.51098 15.19153 1617 ft 237 kts 123°
2026-04-26 20:12 37.48282 15.20189 1158 ft 219 kts 201°
2026-04-26 20:12 37.47132 15.19100 1316 ft 200 kts 245°
2026-04-26 20:12 37.47141 15.17508 1428 ft 179 kts 290°
2026-04-26 20:12 37.47404 15.16020 1244 ft 173 kts 270°
2026-04-26 20:13 37.47304 15.14516 1093 ft 171 kts 260°
2026-04-26 20:13 37.47177 15.13009 971 ft 176 kts 269°
2026-04-26 20:13 37.47077 15.11437 811 ft 182 kts 262°
2026-04-26 20:13 37.46942 15.09812 424 ft 195 kts 266°
2026-04-26 20:14 37.46809 15.08138 182 ft 186 kts 263°
2026-04-26 20:14 37.46678 15.06604 56 ft 167 kts 259°
2026-04-26 20:14 37.46590 15.05604 53 ft 31 kts 265°
2026-04-26 20:14 37.46651 15.05471 54 ft 19 kts 340°
2026-04-26 20:15 37.46752 15.05562 52 ft 22 kts 83°
2026-04-26 20:15 37.46770 15.05769 58 ft 25 kts 81°
2026-04-26 20:15 37.46791 15.05997 54 ft 27 kts 84°
2026-04-26 20:15 37.46811 15.06245 57 ft 29 kts 83°
2026-04-26 20:16 37.46831 15.06409 57 ft 13 kts 59°
2026-04-26 20:16 37.46927 15.06457 52 ft 17 kts 19°
2026-04-26 20:16 37.46945 15.06465 55 ft 0 kts 19°